Tracking 29790 objects as of 12-Oct-2024
HD Live streaming from Space Station
objects crossing your sky now

BREEZE-M DEB

Track BREEZE-M DEB now!


NORAD ID: 38577
Int'l Code: 2008-011Y
Perigee: 634.3 km
Apogee: 27,273.5 km
Inclination: 48.8 °
Period: 480.6 minutes
Semi major axis: 20324 km
RCS: 0.113 m2 (medium)
Launch date: March 14, 2008
Source: Commonwealth of Independent States (former USSR) (CIS)
Launch site: TYURATAM MISSILE AND SPACE COMPLEX (TTMTR)

Note: This is SATELLITE DEBRIS
Your satellite tracking list
Your tracking list is empty




NASA's NSSDC Master Catalog

Two Line Element Set (TLE):
1 38577U 08011Y   24285.06364720  .00000912  00000-0  91707-2 0  9997
2 38577  48.8233 211.2917 6553328  41.0682 355.7995  2.99612026150754
Source of the keplerian elements: AFSPC